COSMOS 1275 DEB, 19047

Orbit data source: Space-Track

COSMOS 1275 DEB, 19047 is space debris in LEO originally from a launch on Thu, 04 Jun 1981 UTC launched from the Plesetsk Missile And Space Complex (PKMTR). Debris objects in space refer to the collection of defunct objects orbiting the Earth. Examples of debris include non-operational satellites, rocket bodies, and fragments generated from explosions, collisions, or faulty payload assembly.

Loading next visibility...
Identifier
19047, 1981-053MF
Orbit
LEO
Country
Flag of CISCIS
Related business
Manufacturer
Unknown
Mission
Spacecraft
Bus & Motor
Unknown
Mass
Unknown
Launch date (UTC)
1981-06-04 (45 years ago)
Launch vehicle
Unknown
Launch site
Plesetsk Missile And Space Complex (PKMTR)
Object type
Payload
Rocket body
Debris
Shape & HBR
Unknown shape, 0.1 m
Radar Cross Section
Small (<0.1 m²)

Expand to show TLE details & history
Last TLE update: 8 hours ago

TLE from 8 hours ago
0 COSMOS 1275 DEB
1 19047U 81053MF  26037.42932534  .00004640  00000-0  20703-2 0  9996
2 19047  82.7820  25.9660 0025311 303.0538 209.5549 14.22416428 85856
Epoch: 2026-02-06T10:18Z
TLE epoch observation values (Epoch: 2026-02-06T10:18:13.709Z)
Latitude
27.33689°
Longitude
-88.89251°
Altitude
836.436 km
Speed
7.429 km/s
True Right ascension
13h 28m 55s
True Declination
27° 11' 54"
Sunlit
Object was in full shadow at epoch
Visualization orbit readout
Latitude
Unknown
Longitude
Unknown
Altitude
Unknown
Speed
Unknown
Apparent Right ascension
Unknown
Apparent Declination
Unknown
Sunlit
N/A
Visualization observer readout
Local Sidereal Time
20:39:55
Azimuth
Unknown
Elevation
Unknown
Doppler factor
Unknown
Orbital elements
Apogee altitude
832.487 km
Perigee altitude
796.077 km
Semi-major axis
7,192.419 km
Eccentricity
0.00253
Inclination
82.782°
RAAN
25.966°
Arg. of periapsis
303.0538°
True anomaly
209.41223°
Mean anomaly
209.5549°
Eccentric anomaly
209.48352°
Mean motion
3.5582 °/min
Orbital period
101.17 mins
BSTAR
0.0020703
Loading maneuver chart data...
Computing Atmospheric mass density...
Loading historical data...
Loading historical data...
Loading historical data...
Loading historical data...
Loading historical data...
Loading historical data...
Loading historical data...

Documentation

Showing up to 5 results
|